weather.gov     
National Weather Service

Terminal Aerodrome Forecast
NWS Homepage
This page is being discontinued on March 12, 2014.
The same data is available at this site. Please update your bookmarks.
Thank you, and we apologize for the inconvenience.
Please send an email to SR-SRH.Webmaster@noaa.gov with any concerns.


Current Version
Previous Version:    01  02  03  04  05  06  07  08  09  10  11  12  13  14  15  16  17  18  19  20  21  22  23  24  25  26  27  28  29  30  
   31  
[Printable]
360
FTUS46 KHNX 300945 AAB
TAFFAT
TAF AMD
KFAT 300945Z 3010/3106 00000KT 1 1/2SM BR SCT150 OVC200
      TEMPO 3010/3012 3/4SM BR VV012
     FM301200 VRB03KT 1/2SM FG VV002
     FM301800 32004KT 1SM BR OVC004
     FM302100 23003KT 4SM HZ SCT200=


360
FTUS46 KHNX 300945 AAB
TAFFAT
TAF AMD
KFAT 300945Z 3010/3106 00000KT 1 1/2SM BR SCT150 OVC200
      TEMPO 3010/3012 3/4SM BR VV012
     FM301200 VRB03KT 1/2SM FG VV002
     FM301800 32004KT 1SM BR OVC004
     FM302100 23003KT 4SM HZ SCT200=




U.S. Dept. of Commerce
NOAA National Weather Service
1325 East West Highway
Silver Spring, MD 20910
E-mail: w-nws.webmaster@noaa.gov
Page last modified: May 16, 2007
NATIONAL WEATHER SERVICE: for Safety, for Work, for Fun - FOR LIFE